Location: *
(38.9800°N, 16.0500°E)
Time: 18:37:48
(UTC+00:00)

Lacrosse 5 - Pass Details

Date: 07 April 2020
Orbit: 715 x 724 km, 57.0° (Epoch: 27 May)

Event Time Altitude Azimuth Distance (km) Brightness Sun altitude
Rises 03:54:55 0° 180° (S) 3,099 5.0 -7.6°
Reaches altitude 10° 03:57:54 10° 163° (SSE) 2,184 4.4 -7.1°
Maximum altitude 04:01:21 19° 119° (ESE) 1,676 4.5 -6.4°
Drops below altitude 10° 04:04:48 10° 76° (ENE) 2,195 6.3 -5.8°
Sets 04:07:48 0° 58° (ENE) 3,120 6.9 -5.2°
